Time,TemperatureF,DewpointF,PressureIn,WindDirection,WindDirectionDegrees,WindSpeedMPH,WindSpeedGustMPH,Humidity,HourlyPrecipIn,Conditions,Clouds,dailyrainin,SoftwareType,DateUTC
2013-05-01 00:02:00,70.0,60.6,29.95,South,184,4.0,10.0,72,0.00,,---,0.00,VWS V14.01,2013-05-01 05:02:00,
2013-05-01 00:07:00,70.1,60.7,29.95,South,178,7.0,9.0,72,0.00,,---,0.00,VWS V14.01,2013-05-01 05:07:00,
2013-05-01 00:12:00,70.0,60.2,29.95,South,178,4.0,9.0,71,0.00,,---,0.00,VWS V14.01,2013-05-01 05:12:00,
2013-05-01 00:17:00,70.1,60.3,29.96,SSE,151,5.0,12.0,71,0.00,,---,0.00,VWS V14.01,2013-05-01 05:17:00,
2013-05-01 00:22:00,70.1,60.3,29.96,South,175,6.0,9.0,71,0.00,,---,0.00,VWS V14.01,2013-05-01 05:22:00,
2013-05-01 00:27:00,70.1,59.9,29.96,SSE,167,5.0,12.0,70,0.00,,---,0.00,VWS V14.01,2013-05-01 05:27:00,
2013-05-01 00:32:00,70.1,59.5,29.96,SSE,157,2.0,8.0,69,0.00,,---,0.00,VWS V14.01,2013-05-01 05:32:00,
2013-05-01 00:37:00,70.2,59.6,29.96,South,181,5.0,7.0,69,0.00,,---,0.00,VWS V14.01,2013-05-01 05:37:00,
2013-05-01 00:42:00,70.1,59.5,29.96,SSE,158,5.0,6.0,69,0.00,,---,0.00,VWS V14.01,2013-05-01 05:42:00,
2013-05-01 00:47:00,69.9,59.7,29.96,South,186,2.0,7.0,70,0.00,,---,0.00,VWS V14.01,2013-05-01 05:47:00,
2013-05-01 00:52:00,69.7,59.5,29.96,SSE,153,5.0,7.0,70,0.00,,---,0.00,VWS V14.01,2013-05-01 05:52:00,
2013-05-01 00:57:00,69.5,59.3,29.96,South,187,5.0,8.0,70,0.00,,---,0.00,VWS V14.01,2013-05-01 05:57:00,
2013-05-01 01:02:00,69.3,59.5,29.97,South,171,3.0,9.0,71,0.00,,---,0.00,VWS V14.01,2013-05-01 06:02:00,
2013-05-01 01:07:00,69.1,59.3,29.97,South,190,7.0,9.0,71,0.00,,---,0.00,VWS V14.01,2013-05-01 06:07:00,
2013-05-01 01:12:00,69.0,59.2,29.97,South,178,3.0,7.0,71,0.00,,---,0.00,VWS V14.01,2013-05-01 06:12:00,
2013-05-01 01:17:00,68.9,59.1,29.97,SSW,196,5.0,6.0,71,0.00,,---,0.00,VWS V14.01,2013-05-01 06:17:00,
2013-05-01 01:22:00,68.7,59.3,29.97,SSE,165,3.0,7.0,72,0.00,,---,0.00,VWS V14.01,2013-05-01 06:22:00,
2013-05-01 01:27:00,68.5,58.7,29.97,South,191,2.0,7.0,71,0.00,,---,0.00,VWS V14.01,2013-05-01 06:27:00,
2013-05-01 01:32:00,68.4,59.0,29.97,SSE,159,3.0,7.0,72,0.00,,---,0.00,VWS V14.01,2013-05-01 06:32:00,
2013-05-01 01:37:00,68.2,59.2,29.97,SSE,162,4.0,5.0,73,0.00,,---,0.00,VWS V14.01,2013-05-01 06:37:00,
2013-05-01 01:42:00,68.0,59.4,29.97,SSW,206,2.0,3.0,74,0.00,,---,0.00,VWS V14.01,2013-05-01 06:42:00,
2013-05-01 01:47:00,67.7,58.7,29.97,SSW,200,6.0,6.0,73,0.00,,---,0.00,VWS V14.01,2013-05-01 06:47:00,
2013-05-01 01:52:00,67.5,58.5,29.97,SSE,162,3.0,7.0,73,0.00,,---,0.00,VWS V14.01,2013-05-01 06:52:00,
2013-05-01 01:57:00,67.5,58.2,29.97,SSE,168,4.0,6.0,72,0.00,,---,0.00,VWS V14.01,2013-05-01 06:57:00,
2013-05-01 02:02:00,67.6,58.3,29.98,SSW,198,6.0,7.0,72,0.00,,---,0.00,VWS V14.01,2013-05-01 07:02:00,
2013-05-01 02:07:00,67.6,58.3,29.98,South,187,4.0,7.0,72,0.00,,---,0.00,VWS V14.01,2013-05-01 07:07:00,
2013-05-01 02:12:00,67.5,58.5,29.98,South,182,4.0,6.0,73,0.00,,---,0.00,VWS V14.01,2013-05-01 07:12:00,
2013-05-01 02:17:00,67.5,58.2,29.98,SSE,159,2.0,4.0,72,0.00,,---,0.00,VWS V14.01,2013-05-01 07:17:00,
2013-05-01 02:22:00,67.4,58.8,29.98,South,173,3.0,3.0,74,0.00,,---,0.00,VWS V14.01,2013-05-01 07:22:00,
2013-05-01 02:27:00,67.0,58.5,29.98,South,173,4.0,4.0,74,0.00,,---,0.00,VWS V14.01,2013-05-01 07:27:00,
2013-05-01 02:32:00,66.8,58.3,29.98,South,173,2.0,4.0,74,0.00,,---,0.00,VWS V14.01,2013-05-01 07:32:00,
2013-05-01 02:37:00,66.4,58.2,29.98,South,173,2.0,4.0,75,0.00,,---,0.00,VWS V14.01,2013-05-01 07:37:00,
2013-05-01 02:42:00,66.1,58.0,29.98,South,174,1.0,3.0,75,0.00,,---,0.00,VWS V14.01,2013-05-01 07:42:00,
2013-05-01 02:47:00,65.7,57.9,29.98,South,174,1.0,3.0,76,0.00,,---,0.00,VWS V14.01,2013-05-01 07:47:00,
2013-05-01 02:52:00,65.3,57.9,29.98,South,173,3.0,4.0,77,0.00,,---,0.00,VWS V14.01,2013-05-01 07:52:00,
2013-05-01 02:57:00,65.0,58.0,29.98,South,173,3.0,4.0,78,0.00,,---,0.00,VWS V14.01,2013-05-01 07:57:00,
2013-05-01 03:02:00,64.8,57.8,29.98,SSE,161,2.0,4.0,78,0.00,,---,0.00,VWS V14.01,2013-05-01 08:02:00,
2013-05-01 03:07:00,64.5,57.8,29.98,SSE,161,2.0,4.0,79,0.00,,---,0.00,VWS V14.01,2013-05-01 08:07:00,
2013-05-01 03:12:00,64.2,57.6,29.98,SSE,161,1.0,3.0,79,0.00,,---,0.00,VWS V14.01,2013-05-01 08:12:00,
2013-05-01 03:17:00,63.9,57.6,29.98,SSE,161,1.0,3.0,80,0.00,,---,0.00,VWS V14.01,2013-05-01 08:17:00,
2013-05-01 03:22:00,63.6,57.7,29.99,SSE,161,1.0,2.0,81,0.00,,---,0.00,VWS V14.01,2013-05-01 08:22:00,
2013-05-01 03:27:00,63.3,57.7,29.99,SSE,161,0.0,2.0,82,0.00,,---,0.00,VWS V14.01,2013-05-01 08:27:00,
2013-05-01 03:32:00,62.9,58.0,29.99,SSE,161,0.0,1.0,84,0.00,,---,0.00,VWS V14.01,2013-05-01 08:32:00,
2013-05-01 03:37:00,62.6,57.7,29.99,SSE,161,0.0,1.0,84,0.00,,---,0.00,VWS V14.01,2013-05-01 08:37:00,
2013-05-01 03:42:00,62.3,57.1,29.99,SSE,161,0.0,1.0,83,0.00,,---,0.00,VWS V14.01,2013-05-01 08:42:00,
2013-05-01 03:47:00,62.0,56.8,29.99,SSE,161,0.0,3.0,83,0.00,,---,0.00,VWS V14.01,2013-05-01 08:47:00,
2013-05-01 03:52:00,61.7,56.8,29.99,SSE,161,1.0,3.0,84,0.00,,---,0.00,VWS V14.01,2013-05-01 08:52:00,
2013-05-01 03:57:00,61.5,56.6,29.99,SSE,161,0.0,0.0,84,0.00,,---,0.00,VWS V14.01,2013-05-01 08:57:00,
2013-05-01 04:02:00,61.3,56.8,30.00,SSE,161,0.0,1.0,85,0.00,,---,0.00,VWS V14.01,2013-05-01 09:02:00,
2013-05-01 04:07:00,61.2,57.0,30.00,SSE,161,0.0,1.0,86,0.00,,---,0.00,VWS V14.01,2013-05-01 09:07:00,
2013-05-01 04:12:00,61.0,56.8,30.00,SSE,160,0.0,0.0,86,0.00,,---,0.00,VWS V14.01,2013-05-01 09:12:00,
2013-05-01 04:17:00,60.8,56.9,30.00,SSE,161,0.0,0.0,87,0.00,,---,0.00,VWS V14.01,2013-05-01 09:17:00,
2013-05-01 04:22:00,60.6,57.0,30.00,SSE,161,0.0,0.0,88,0.00,,---,0.00,VWS V14.01,2013-05-01 09:22:00,
2013-05-01 04:27:00,60.4,56.8,30.00,SSE,161,0.0,0.0,88,0.00,,---,0.00,VWS V14.01,2013-05-01 09:27:00,
2013-05-01 04:32:00,60.2,56.6,30.00,SSE,161,0.0,0.0,88,0.00,,---,0.00,VWS V14.01,2013-05-01 09:32:00,
2013-05-01 04:37:00,60.0,56.4,30.01,SSE,161,0.0,2.0,88,0.00,,---,0.00,VWS V14.01,2013-05-01 09:37:00,
2013-05-01 04:42:00,59.8,56.6,30.01,SSE,161,0.0,0.0,89,0.00,,---,0.00,VWS V14.01,2013-05-01 09:42:00,
2013-05-01 04:47:00,59.5,56.3,30.01,SSE,161,0.0,1.0,89,0.00,,---,0.00,VWS V14.01,2013-05-01 09:47:00,
2013-05-01 04:52:00,59.3,56.4,30.01,SSE,161,0.0,1.0,90,0.00,,---,0.00,VWS V14.01,2013-05-01 09:52:00,
2013-05-01 04:57:00,59.0,56.1,30.01,SSE,161,0.0,1.0,90,0.00,,---,0.00,VWS V14.01,2013-05-01 09:57:00,
2013-05-01 05:02:00,58.8,55.9,30.01,SSE,161,0.0,0.0,90,0.00,,---,0.00,VWS V14.01,2013-05-01 10:02:00,
2013-05-01 05:07:00,58.6,55.7,30.01,SSE,161,0.0,2.0,90,0.00,,---,0.00,VWS V14.01,2013-05-01 10:07:00,
2013-05-01 05:12:00,58.3,55.4,30.01,SSE,161,0.0,0.0,90,0.00,,---,0.00,VWS V14.01,2013-05-01 10:12:00,
2013-05-01 05:17:00,58.1,55.2,30.01,SSE,161,0.0,1.0,90,0.00,,---,0.00,VWS V14.01,2013-05-01 10:17:00,
2013-05-01 05:22:00,57.9,55.0,30.02,SSE,161,0.0,0.0,90,0.00,,---,0.00,VWS V14.01,2013-05-01 10:22:00,
2013-05-01 05:27:00,57.8,55.2,30.02,SSE,161,0.0,0.0,91,0.00,,---,0.00,VWS V14.01,2013-05-01 10:27:00,
2013-05-01 05:32:00,57.7,55.1,30.02,SSE,161,0.0,0.0,91,0.00,,---,0.00,VWS V14.01,2013-05-01 10:32:00,
2013-05-01 05:37:00,57.6,55.3,30.02,SSE,161,0.0,0.0,92,0.00,,---,0.00,VWS V14.01,2013-05-01 10:37:00,
2013-05-01 05:42:00,57.6,55.3,30.03,SSE,161,0.0,0.0,92,0.00,,---,0.00,VWS V14.01,2013-05-01 10:42:00,
2013-05-01 05:47:00,57.5,55.2,30.03,SSE,161,0.0,0.0,92,0.00,,---,0.00,VWS V14.01,2013-05-01 10:47:00,
2013-05-01 05:52:00,57.4,54.8,30.03,SSE,161,0.0,0.0,91,0.00,,---,0.00,VWS V14.01,2013-05-01 10:52:00,
2013-05-01 05:57:00,57.2,54.6,30.03,SSE,161,0.0,1.0,91,0.00,,---,0.00,VWS V14.01,2013-05-01 10:57:00,
2013-05-01 06:02:00,57.0,54.4,30.03,SSE,161,0.0,1.0,91,0.00,,---,0.00,VWS V14.01,2013-05-01 11:02:00,
2013-05-01 06:07:00,57.0,54.7,30.03,SSE,161,2.0,2.0,92,0.00,,---,0.00,VWS V14.01,2013-05-01 11:07:00,
2013-05-01 06:12:00,57.2,54.9,30.03,SSE,161,2.0,3.0,92,0.00,,---,0.00,VWS V14.01,2013-05-01 11:12:00,
2013-05-01 06:17:00,57.6,55.3,30.03,SSE,161,1.0,3.0,92,0.00,,---,0.00,VWS V14.01,2013-05-01 11:17:00,
2013-05-01 06:22:00,58.0,55.4,30.04,SSE,161,4.0,5.0,91,0.00,,---,0.00,VWS V14.01,2013-05-01 11:22:00,
2013-05-01 06:27:00,58.4,55.5,30.04,SSE,161,2.0,2.0,90,0.00,,---,0.00,VWS V14.01,2013-05-01 11:27:00,
2013-05-01 06:32:00,58.7,55.5,30.04,SSE,161,1.0,3.0,89,0.00,,---,0.00,VWS V14.01,2013-05-01 11:32:00,
2013-05-01 06:37:00,59.1,55.5,30.04,SSE,161,4.0,5.0,88,0.00,,---,0.00,VWS V14.01,2013-05-01 11:37:00,
2013-05-01 06:42:00,59.4,55.8,30.05,SSE,157,2.0,6.0,88,0.00,,---,0.00,VWS V14.01,2013-05-01 11:42:00,
2013-05-01 06:47:00,59.6,55.7,30.05,SSE,153,2.0,4.0,87,0.00,,---,0.00,VWS V14.01,2013-05-01 11:47:00,
2013-05-01 06:53:00,59.8,55.6,30.05,SSE,154,2.0,6.0,86,0.00,,---,0.00,VWS V14.01,2013-05-01 11:53:00,
2013-05-01 06:58:00,60.1,55.9,30.05,SSE,155,2.0,5.0,86,0.00,,---,0.00,VWS V14.01,2013-05-01 11:58:00,
2013-05-01 07:02:00,60.4,56.2,30.06,SSE,149,3.0,6.0,86,0.00,,---,0.00,VWS V14.01,2013-05-01 12:02:00,
2013-05-01 07:08:00,60.7,56.2,30.06,South,183,5.0,5.0,85,0.00,,---,0.00,VWS V14.01,2013-05-01 12:08:00,
2013-05-01 07:13:00,61.0,56.5,30.06,SSE,148,1.0,4.0,85,0.00,,---,0.00,VWS V14.01,2013-05-01 12:13:00,
2013-05-01 07:18:00,61.3,56.4,30.06,SE,128,4.0,7.0,84,0.00,,---,0.00,VWS V14.01,2013-05-01 12:18:00,
2013-05-01 07:23:00,61.7,56.8,30.06,SE,134,2.0,6.0,84,0.00,,---,0.00,VWS V14.01,2013-05-01 12:23:00,
2013-05-01 07:28:00,62.1,56.9,30.07,SSE,161,4.0,6.0,83,0.00,,---,0.00,VWS V14.01,2013-05-01 12:28:00,
2013-05-01 07:33:00,62.6,57.4,30.06,SSE,159,2.0,6.0,83,0.00,,---,0.00,VWS V14.01,2013-05-01 12:33:00,
2013-05-01 07:38:00,63.1,57.5,30.07,South,173,4.0,6.0,82,0.00,,---,0.00,VWS V14.01,2013-05-01 12:38:00,
2013-05-01 07:43:00,63.5,57.6,30.07,South,171,6.0,6.0,81,0.00,,---,0.00,VWS V14.01,2013-05-01 12:43:00,
2013-05-01 07:48:00,63.9,57.6,30.06,South,173,5.0,7.0,80,0.00,,---,0.00,VWS V14.01,2013-05-01 12:48:00,
2013-05-01 07:53:00,64.4,57.8,30.07,South,183,8.0,8.0,79,0.00,,---,0.00,VWS V14.01,2013-05-01 12:53:00,
2013-05-01 07:58:00,64.9,57.5,30.06,SSE,166,5.0,7.0,77,0.00,,---,0.00,VWS V14.01,2013-05-01 12:58:00,
2013-05-01 08:03:00,65.4,57.7,30.07,SSE,150,7.0,8.0,76,0.00,,---,0.00,VWS V14.01,2013-05-01 13:03:00,
2013-05-01 08:08:00,65.7,57.9,30.07,South,180,4.0,7.0,76,0.00,,---,0.00,VWS V14.01,2013-05-01 13:08:00,
2013-05-01 08:13:00,66.1,57.6,30.07,South,178,6.0,7.0,74,0.00,,---,0.00,VWS V14.01,2013-05-01 13:13:00,
2013-05-01 08:18:00,66.4,57.9,30.07,SSW,194,4.0,7.0,74,0.00,,---,0.00,VWS V14.01,2013-05-01 13:18:00,
2013-05-01 08:23:00,66.8,58.3,30.07,South,191,4.0,6.0,74,0.00,,---,0.00,VWS V14.01,2013-05-01 13:23:00,
2013-05-01 08:28:00,67.1,57.8,30.07,SSE,155,5.0,9.0,72,0.00,,---,0.00,VWS V14.01,2013-05-01 13:28:00,
2013-05-01 08:33:00,67.4,58.1,30.07,South,178,6.0,7.0,72,0.00,,---,0.00,VWS V14.01,2013-05-01 13:33:00,
2013-05-01 08:38:00,67.6,57.9,30.07,South,179,5.0,8.0,71,0.00,,---,0.00,VWS V14.01,2013-05-01 13:38:00,
2013-05-01 08:43:00,68.0,58.3,30.07,South,169,3.0,8.0,71,0.00,,---,0.00,VWS V14.01,2013-05-01 13:43:00,
2013-05-01 08:48:00,68.4,58.6,30.07,South,190,3.0,6.0,71,0.00,,---,0.00,VWS V14.01,2013-05-01 13:48:00,
2013-05-01 08:53:00,68.8,58.6,30.07,South,182,3.0,6.0,70,0.00,,---,0.00,VWS V14.01,2013-05-01 13:53:00,
2013-05-01 08:58:00,69.3,58.7,30.07,SSE,158,4.0,7.0,69,0.00,,---,0.00,VWS V14.01,2013-05-01 13:58:00,
2013-05-01 09:03:00,69.7,58.7,30.07,SSW,202,2.0,6.0,68,0.00,,---,0.00,VWS V14.01,2013-05-01 14:03:00,
2013-05-01 09:08:00,70.1,58.7,30.07,SSW,198,2.0,6.0,67,0.00,,---,0.00,VWS V14.01,2013-05-01 14:08:00,
2013-05-01 09:13:00,70.5,59.0,30.07,South,172,4.0,7.0,67,0.00,,---,0.00,VWS V14.01,2013-05-01 14:13:00,
2013-05-01 09:18:00,70.8,58.9,30.07,South,180,4.0,7.0,66,0.00,,---,0.00,VWS V14.01,2013-05-01 14:18:00,
2013-05-01 09:23:00,71.1,59.2,30.08,South,189,3.0,7.0,66,0.00,,---,0.00,VWS V14.01,2013-05-01 14:23:00,
2013-05-01 09:28:00,71.4,59.5,30.08,SSW,201,8.0,8.0,66,0.00,,---,0.00,VWS V14.01,2013-05-01 14:28:00,
2013-05-01 09:33:00,71.7,59.3,30.08,SSW,204,4.0,4.0,65,0.00,,---,0.00,VWS V14.01,2013-05-01 14:33:00,
2013-05-01 09:38:00,72.1,59.3,30.08,South,182,4.0,7.0,64,0.00,,---,0.00,VWS V14.01,2013-05-01 14:38:00,
2013-05-01 09:43:00,72.4,59.1,30.08,SW,225,6.0,6.0,63,0.00,,---,0.00,VWS V14.01,2013-05-01 14:43:00,
2013-05-01 09:48:00,72.8,59.9,30.08,South,176,4.0,6.0,64,0.00,,---,0.00,VWS V14.01,2013-05-01 14:48:00,
2013-05-01 09:53:00,73.1,59.8,30.08,SW,219,4.0,9.0,63,0.00,,---,0.00,VWS V14.01,2013-05-01 14:53:00,
2013-05-01 09:58:00,73.4,59.6,30.08,SSW,199,7.0,8.0,62,0.00,,---,0.00,VWS V14.01,2013-05-01 14:58:00,
2013-05-01 10:03:00,73.7,59.9,30.08,SW,219,2.0,7.0,62,0.00,,---,0.00,VWS V14.01,2013-05-01 15:03:00,
2013-05-01 10:08:00,74.2,60.4,30.08,South,173,3.0,5.0,62,0.00,,---,0.00,VWS V14.01,2013-05-01 15:08:00,
2013-05-01 10:13:00,74.6,60.7,30.08,South,171,0.0,4.0,62,0.00,,---,0.00,VWS V14.01,2013-05-01 15:13:00,
2013-05-01 10:18:00,75.1,60.8,30.08,SSW,211,3.0,9.0,61,0.00,,---,0.00,VWS V14.01,2013-05-01 15:18:00,
2013-05-01 10:23:00,75.5,60.7,30.08,South,169,4.0,6.0,60,0.00,,---,0.00,VWS V14.01,2013-05-01 15:23:00,
2013-05-01 10:28:00,75.7,60.4,30.08,SSW,195,3.0,7.0,59,0.00,,---,0.00,VWS V14.01,2013-05-01 15:28:00,
2013-05-01 10:33:00,76.0,60.7,30.09,SSW,192,4.0,8.0,59,0.00,,---,0.00,VWS V14.01,2013-05-01 15:33:00,
2013-05-01 10:38:00,76.1,60.3,30.08,South,188,9.0,9.0,58,0.00,,---,0.00,VWS V14.01,2013-05-01 15:38:00,
2013-05-01 10:43:00,76.3,61.9,30.08,South,182,0.0,6.0,61,0.00,,---,0.00,VWS V14.01,2013-05-01 15:43:00,
2013-05-01 10:48:00,76.7,59.8,30.09,SW,225,5.0,7.0,56,0.00,,---,0.00,VWS V14.01,2013-05-01 15:48:00,
2013-05-01 10:53:00,77.1,60.7,30.09,SSW,205,6.0,7.0,57,0.00,,---,0.00,VWS V14.01,2013-05-01 15:53:00,
2013-05-01 10:58:00,77.4,60.5,30.09,SSW,200,5.0,7.0,56,0.00,,---,0.00,VWS V14.01,2013-05-01 15:58:00,
2013-05-01 11:03:00,77.7,59.8,30.09,South,174,3.0,7.0,54,0.00,,---,0.00,VWS V14.01,2013-05-01 16:03:00,
2013-05-01 11:08:00,78.0,59.5,30.09,SW,215,4.0,6.0,53,0.00,,---,0.00,VWS V14.01,2013-05-01 16:08:00,
2013-05-01 11:13:00,78.3,60.8,30.09,SSW,195,7.0,7.0,55,0.00,,---,0.00,VWS V14.01,2013-05-01 16:13:00,
2013-05-01 11:18:00,78.6,59.5,30.09,SW,234,5.0,6.0,52,0.00,,---,0.00,VWS V14.01,2013-05-01 16:18:00,
2013-05-01 11:23:00,78.8,60.2,30.08,SSW,208,3.0,6.0,53,0.00,,---,0.00,VWS V14.01,2013-05-01 16:23:00,
2013-05-01 11:28:00,79.1,60.0,30.08,West,259,6.0,6.0,52,0.00,,---,0.00,VWS V14.01,2013-05-01 16:28:00,
2013-05-01 11:33:00,79.3,59.6,30.09,SW,214,3.0,7.0,51,0.00,,---,0.00,VWS V14.01,2013-05-01 16:33:00,
2013-05-01 11:38:00,79.4,59.7,30.08,SSW,209,2.0,6.0,51,0.00,,---,0.00,VWS V14.01,2013-05-01 16:38:00,
2013-05-01 11:43:00,79.4,59.2,30.08,South,180,3.0,7.0,50,0.00,,---,0.00,VWS V14.01,2013-05-01 16:43:00,
2013-05-01 11:48:00,79.5,59.2,30.09,SW,217,9.0,9.0,50,0.00,,---,0.00,VWS V14.01,2013-05-01 16:48:00,
2013-05-01 11:53:00,79.6,58.8,30.09,SSW,202,1.0,6.0,49,0.00,,---,0.00,VWS V14.01,2013-05-01 16:53:00,
2013-05-01 11:58:00,79.9,59.6,30.09,SW,220,5.0,5.0,50,0.00,,---,0.00,VWS V14.01,2013-05-01 16:58:00,
2013-05-01 12:04:00,80.2,59.9,30.08,SE,124,0.0,9.0,50,0.00,,---,0.00,VWS V14.01,2013-05-01 17:04:00,
2013-05-01 12:09:00,80.5,59.0,30.08,SE,133,3.0,10.0,48,0.00,,---,0.00,VWS V14.01,2013-05-01 17:09:00,
2013-05-01 12:14:00,80.3,57.7,30.08,SSE,150,5.0,11.0,46,0.00,,---,0.00,VWS V14.01,2013-05-01 17:14:00,
2013-05-01 12:19:00,80.1,58.1,30.08,SSE,152,3.0,10.0,47,0.00,,---,0.00,VWS V14.01,2013-05-01 17:19:00,
2013-05-01 12:24:00,80.1,58.1,30.08,SW,229,5.0,8.0,47,0.00,,---,0.00,VWS V14.01,2013-05-01 17:24:00,
2013-05-01 12:29:00,80.2,58.8,30.08,SW,214,7.0,9.0,48,0.00,,---,0.00,VWS V14.01,2013-05-01 17:29:00,
2013-05-01 12:34:00,80.2,57.6,30.08,South,182,6.0,11.0,46,0.00,,---,0.00,VWS V14.01,2013-05-01 17:34:00,
2013-05-01 12:39:00,80.2,58.8,30.08,SSW,197,7.0,10.0,48,0.00,,---,0.00,VWS V14.01,2013-05-01 17:39:00,
2013-05-01 12:44:00,80.3,58.8,30.08,SSE,165,4.0,10.0,48,0.00,,---,0.00,VWS V14.01,2013-05-01 17:44:00,
2013-05-01 12:49:00,80.4,58.3,30.08,SSW,209,6.0,11.0,47,0.00,,---,0.00,VWS V14.01,2013-05-01 17:49:00,
2013-05-01 12:54:00,80.5,58.4,30.07,SSW,194,6.0,10.0,47,0.00,,---,0.00,VWS V14.01,2013-05-01 17:54:00,
2013-05-01 12:59:00,80.5,58.4,30.08,South,184,10.0,10.0,47,0.00,,---,0.00,VWS V14.01,2013-05-01 17:59:00,
2013-05-01 13:04:00,80.5,59.6,30.08,SSE,162,3.0,11.0,49,0.00,,---,0.00,VWS V14.01,2013-05-01 18:04:00,
2013-05-01 13:09:00,80.5,57.8,30.07,South,187,8.0,15.0,46,0.00,,---,0.00,VWS V14.01,2013-05-01 18:09:00,
2013-05-01 13:14:00,80.3,57.7,30.08,SSE,163,7.0,14.0,46,0.00,,---,0.00,VWS V14.01,2013-05-01 18:14:00,
2013-05-01 13:19:00,80.3,58.2,30.08,SSE,164,10.0,13.0,47,0.00,,---,0.00,VWS V14.01,2013-05-01 18:19:00,
2013-05-01 13:24:00,80.3,58.2,30.08,South,170,2.0,11.0,47,0.00,,---,0.00,VWS V14.01,2013-05-01 18:24:00,
2013-05-01 13:29:00,80.3,58.2,30.08,SE,146,3.0,9.0,47,0.00,,---,0.00,VWS V14.01,2013-05-01 18:29:00,
2013-05-01 13:34:00,80.4,59.5,30.08,SSE,147,3.0,8.0,49,0.00,,---,0.00,VWS V14.01,2013-05-01 18:34:00,
2013-05-01 13:39:00,80.2,59.9,30.08,SSE,156,10.0,10.0,50,0.00,,---,0.00,VWS V14.01,2013-05-01 18:39:00,
2013-05-01 13:44:00,80.2,59.3,30.08,SSE,154,9.0,10.0,49,0.00,,---,0.00,VWS V14.01,2013-05-01 18:44:00,
2013-05-01 13:49:00,80.2,59.3,30.08,SSE,153,9.0,12.0,49,0.00,,---,0.00,VWS V14.01,2013-05-01 18:49:00,
2013-05-01 13:54:00,80.1,59.2,30.08,SSE,148,4.0,11.0,49,0.00,,---,0.00,VWS V14.01,2013-05-01 18:54:00,
2013-05-01 13:59:00,80.1,59.8,30.08,SE,136,4.0,9.0,50,0.00,,---,0.00,VWS V14.01,2013-05-01 18:59:00,
2013-05-01 14:04:00,80.5,60.2,30.08,SSE,149,6.0,6.0,50,0.00,,---,0.00,VWS V14.01,2013-05-01 19:04:00,
2013-05-01 14:09:00,80.9,60.0,30.07,South,169,7.0,13.0,49,0.00,,---,0.00,VWS V14.01,2013-05-01 19:09:00,
2013-05-01 14:14:00,80.9,60.0,30.08,SSE,155,5.0,10.0,49,0.00,,---,0.00,VWS V14.01,2013-05-01 19:14:00,
2013-05-01 14:19:00,80.9,59.4,30.07,ESE,114,4.0,9.0,48,0.00,,---,0.00,VWS V14.01,2013-05-01 19:19:00,
2013-05-01 14:24:00,80.9,60.0,30.08,ESE,121,3.0,8.0,49,0.00,,---,0.00,VWS V14.01,2013-05-01 19:24:00,
2013-05-01 14:29:00,80.9,59.4,30.07,South,175,7.0,9.0,48,0.00,,---,0.00,VWS V14.01,2013-05-01 19:29:00,
2013-05-01 14:34:00,81.0,61.2,30.07,SSE,157,3.0,9.0,51,0.00,,---,0.00,VWS V14.01,2013-05-01 19:34:00,
2013-05-01 14:39:00,81.2,60.8,30.07,SSE,154,4.0,7.0,50,0.00,,---,0.00,VWS V14.01,2013-05-01 19:39:00,
2013-05-01 14:44:00,81.5,59.9,30.07,SSE,151,13.0,13.0,48,0.00,,---,0.00,VWS V14.01,2013-05-01 19:44:00,
2013-05-01 14:49:00,81.2,59.7,30.08,SE,145,2.0,11.0,48,0.00,,---,0.00,VWS V14.01,2013-05-01 19:49:00,
2013-05-01 14:54:00,81.1,60.2,30.08,SW,226,2.0,12.0,49,0.00,,---,0.00,VWS V14.01,2013-05-01 19:54:00,
2013-05-01 14:59:00,81.5,59.9,30.08,SSE,148,10.0,14.0,48,0.00,,---,0.00,VWS V14.01,2013-05-01 19:59:00,
2013-05-01 15:04:00,81.6,60.0,30.07,ESE,113,4.0,18.0,48,0.00,,---,0.00,VWS V14.01,2013-05-01 20:04:00,
2013-05-01 15:09:00,81.5,58.8,30.07,SSE,154,7.0,12.0,46,0.00,,---,0.00,VWS V14.01,2013-05-01 20:09:00,
2013-05-01 15:14:00,81.4,58.7,30.07,SSE,157,8.0,11.0,46,0.00,,---,0.00,VWS V14.01,2013-05-01 20:14:00,
2013-05-01 15:19:00,81.5,58.1,30.07,SSE,147,4.0,12.0,45,0.00,,---,0.00,VWS V14.01,2013-05-01 20:19:00,
2013-05-01 15:24:00,81.4,58.0,30.07,ESE,109,5.0,9.0,45,0.00,,---,0.00,VWS V14.01,2013-05-01 20:24:00,
2013-05-01 15:29:00,81.3,58.6,30.07,SE,146,5.0,11.0,46,0.00,,---,0.00,VWS V14.01,2013-05-01 20:29:00,
2013-05-01 15:34:00,81.4,58.7,30.07,East,99,8.0,8.0,46,0.00,,---,0.00,VWS V14.01,2013-05-01 20:34:00,
2013-05-01 15:39:00,81.3,58.0,30.07,SSE,156,7.0,12.0,45,0.00,,---,0.00,VWS V14.01,2013-05-01 20:39:00,
2013-05-01 15:44:00,81.3,58.0,30.07,South,186,8.0,12.0,45,0.00,,---,0.00,VWS V14.01,2013-05-01 20:44:00,
2013-05-01 15:49:00,81.3,58.6,30.07,ESE,117,10.0,11.0,46,0.00,,---,0.00,VWS V14.01,2013-05-01 20:49:00,
2013-05-01 15:54:00,81.4,58.7,30.07,SSE,155,3.0,10.0,46,0.00,,---,0.00,VWS V14.01,2013-05-01 20:54:00,
2013-05-01 15:59:00,81.6,58.2,30.07,ESE,114,4.0,11.0,45,0.00,,---,0.00,VWS V14.01,2013-05-01 20:59:00,
2013-05-01 16:04:00,81.6,58.2,30.07,SE,126,10.0,10.0,45,0.00,,---,0.00,VWS V14.01,2013-05-01 21:04:00,
2013-05-01 16:09:00,81.6,59.4,30.07,South,174,3.0,10.0,47,0.00,,---,0.00,VWS V14.01,2013-05-01 21:09:00,
2013-05-01 16:14:00,81.8,60.2,30.07,SSE,159,10.0,10.0,48,0.00,,---,0.00,VWS V14.01,2013-05-01 21:14:00,
2013-05-01 16:19:00,81.6,58.8,30.07,South,190,6.0,11.0,46,0.00,,---,0.00,VWS V14.01,2013-05-01 21:19:00,
2013-05-01 16:24:00,81.5,58.8,30.07,South,173,6.0,11.0,46,0.00,,---,0.00,VWS V14.01,2013-05-01 21:24:00,
2013-05-01 16:29:00,81.4,58.7,30.07,SSE,153,6.0,8.0,46,0.00,,---,0.00,VWS V14.01,2013-05-01 21:29:00,
2013-05-01 16:34:00,81.6,59.4,30.07,SSE,165,5.0,9.0,47,0.00,,---,0.00,VWS V14.01,2013-05-01 21:34:00,
2013-05-01 16:39:00,81.6,59.4,30.07,SE,128,2.0,8.0,47,0.00,,---,0.00,VWS V14.01,2013-05-01 21:39:00,
2013-05-01 16:44:00,81.6,59.4,30.07,SSE,156,11.0,11.0,47,0.00,,---,0.00,VWS V14.01,2013-05-01 21:44:00,
2013-05-01 16:49:00,81.6,60.0,30.07,SE,125,1.0,15.0,48,0.00,,---,0.00,VWS V14.01,2013-05-01 21:49:00,
2013-05-01 16:55:00,81.7,60.7,30.07,South,188,5.0,7.0,49,0.00,,---,0.00,VWS V14.01,2013-05-01 21:55:00,
2013-05-01 17:00:00,81.6,60.6,30.07,SSE,168,3.0,10.0,49,0.00,,---,0.00,VWS V14.01,2013-05-01 22:00:00,
2013-05-01 17:05:00,81.6,59.4,30.07,SE,132,5.0,10.0,47,0.00,,---,0.00,VWS V14.01,2013-05-01 22:05:00,
2013-05-01 17:10:00,81.5,59.9,30.07,SE,126,5.0,11.0,48,0.00,,---,0.00,VWS V14.01,2013-05-01 22:10:00,
2013-05-01 17:15:00,81.4,59.8,30.07,ESE,107,2.0,10.0,48,0.00,,---,0.00,VWS V14.01,2013-05-01 22:15:00,
2013-05-01 17:20:00,81.3,59.8,30.07,SSE,161,8.0,11.0,48,0.00,,---,0.00,VWS V14.01,2013-05-01 22:20:00,
2013-05-01 17:25:00,81.0,60.1,30.07,South,181,1.0,8.0,49,0.00,,---,0.00,VWS V14.01,2013-05-01 22:25:00,
2013-05-01 17:30:00,81.1,59.0,30.07,SSE,157,4.0,11.0,47,0.00,,---,0.00,VWS V14.01,2013-05-01 22:30:00,
2013-05-01 17:35:00,81.1,59.6,30.07,ESE,115,4.0,8.0,48,0.00,,---,0.00,VWS V14.01,2013-05-01 22:35:00,
2013-05-01 17:40:00,81.1,60.2,30.07,South,174,3.0,6.0,49,0.00,,---,0.00,VWS V14.01,2013-05-01 22:40:00,
2013-05-01 17:45:00,81.0,60.1,30.07,South,173,4.0,10.0,49,0.00,,---,0.00,VWS V14.01,2013-05-01 22:45:00,
2013-05-01 17:50:00,80.9,59.4,30.07,ESE,113,3.0,10.0,48,0.00,,---,0.00,VWS V14.01,2013-05-01 22:50:00,
2013-05-01 17:55:00,80.9,60.5,30.07,South,184,5.0,11.0,50,0.00,,---,0.00,VWS V14.01,2013-05-01 22:55:00,
2013-05-01 18:00:00,80.8,60.4,30.07,SSE,165,4.0,8.0,50,0.00,,---,0.00,VWS V14.01,2013-05-01 23:00:00,
2013-05-01 18:05:00,80.6,60.3,30.07,SE,142,2.0,9.0,50,0.00,,---,0.00,VWS V14.01,2013-05-01 23:05:00,
2013-05-01 18:10:00,80.5,59.6,30.07,SE,137,4.0,10.0,49,0.00,,---,0.00,VWS V14.01,2013-05-01 23:10:00,
2013-05-01 18:15:00,80.3,60.0,30.06,SSE,158,5.0,7.0,50,0.00,,---,0.00,VWS V14.01,2013-05-01 23:15:00,
2013-05-01 18:20:00,80.2,61.0,30.06,ESE,120,2.0,7.0,52,0.00,,---,0.00,VWS V14.01,2013-05-01 23:20:00,
2013-05-01 18:25:00,80.1,60.4,30.07,SE,145,3.0,6.0,51,0.00,,---,0.00,VWS V14.01,2013-05-01 23:25:00,
2013-05-01 18:30:00,80.0,60.8,30.07,SE,138,2.0,5.0,52,0.00,,---,0.00,VWS V14.01,2013-05-01 23:30:00,
2013-05-01 18:35:00,79.8,60.1,30.07,SE,130,5.0,7.0,51,0.00,,---,0.00,VWS V14.01,2013-05-01 23:35:00,
2013-05-01 18:40:00,79.6,60.4,30.07,SE,124,4.0,7.0,52,0.00,,---,0.00,VWS V14.01,2013-05-01 23:40:00,
2013-05-01 18:45:00,79.5,60.3,30.07,SE,144,5.0,7.0,52,0.00,,---,0.00,VWS V14.01,2013-05-01 23:45:00,
2013-05-01 18:50:00,79.3,60.7,30.07,SSE,149,2.0,7.0,53,0.00,,---,0.00,VWS V14.01,2013-05-01 23:50:00,
2013-05-01 18:55:00,79.2,61.7,30.07,SE,142,2.0,5.0,55,0.00,,---,0.00,VWS V14.01,2013-05-01 23:55:00,
2013-05-01 19:00:00,79.0,62.0,30.07,SE,132,2.0,4.0,56,0.00,,---,0.00,VWS V14.01,2013-05-02 00:00:00,
2013-05-01 19:05:00,78.8,62.3,30.07,SSE,162,2.0,6.0,57,0.00,,---,0.00,VWS V14.01,2013-05-02 00:05:00,
2013-05-01 19:10:00,78.6,61.6,30.07,SSE,152,2.0,5.0,56,0.00,,---,0.00,VWS V14.01,2013-05-02 00:10:00,
2013-05-01 19:15:00,78.3,61.3,30.07,SSE,156,2.0,5.0,56,0.00,,---,0.00,VWS V14.01,2013-05-02 00:15:00,
2013-05-01 19:20:00,78.1,61.6,30.07,SSE,148,3.0,3.0,57,0.00,,---,0.00,VWS V14.01,2013-05-02 00:20:00,
2013-05-01 19:25:00,77.9,61.5,30.07,SE,136,0.0,4.0,57,0.00,,---,0.00,VWS V14.01,2013-05-02 00:25:00,
2013-05-01 19:30:00,77.7,61.8,30.07,SE,136,1.0,4.0,58,0.00,,---,0.00,VWS V14.01,2013-05-02 00:30:00,
2013-05-01 19:35:00,77.5,62.5,30.07,SE,136,2.0,4.0,60,0.00,,---,0.00,VWS V14.01,2013-05-02 00:35:00,
2013-05-01 19:40:00,77.2,62.7,30.07,SE,142,0.0,4.0,61,0.00,,---,0.00,VWS V14.01,2013-05-02 00:40:00,
2013-05-01 19:45:00,76.9,62.0,30.07,SE,142,0.0,3.0,60,0.00,,---,0.00,VWS V14.01,2013-05-02 00:45:00,
2013-05-01 19:50:00,76.6,62.2,30.07,SE,146,1.0,4.0,61,0.00,,---,0.00,VWS V14.01,2013-05-02 00:50:00,
2013-05-01 19:55:00,76.3,62.3,30.07,SE,146,0.0,3.0,62,0.00,,---,0.00,VWS V14.01,2013-05-02 00:55:00,
2013-05-01 20:00:00,76.0,62.5,30.07,SE,146,1.0,3.0,63,0.00,,---,0.00,VWS V14.01,2013-05-02 01:00:00,
2013-05-01 20:05:00,75.6,61.7,30.07,SE,146,2.0,2.0,62,0.00,,---,0.00,VWS V14.01,2013-05-02 01:05:00,
2013-05-01 20:10:00,75.4,62.4,30.08,SE,146,1.0,2.0,64,0.00,,---,0.00,VWS V14.01,2013-05-02 01:10:00,
2013-05-01 20:15:00,75.1,62.5,30.08,SE,146,2.0,2.0,65,0.00,,---,0.00,VWS V14.01,2013-05-02 01:15:00,
2013-05-01 20:20:00,74.8,62.3,30.08,SE,146,2.0,2.0,65,0.00,,---,0.00,VWS V14.01,2013-05-02 01:20:00,
2013-05-01 20:25:00,74.6,62.5,30.08,SE,146,0.0,0.0,66,0.00,,---,0.00,VWS V14.01,2013-05-02 01:25:00,
2013-05-01 20:30:00,74.3,61.8,30.08,SE,146,0.0,0.0,65,0.00,,---,0.00,VWS V14.01,2013-05-02 01:30:00,
2013-05-01 20:35:00,74.1,62.0,30.08,SE,146,0.0,0.0,66,0.00,,---,0.00,VWS V14.01,2013-05-02 01:35:00,
2013-05-01 20:40:00,73.8,61.3,30.08,SE,146,0.0,0.0,65,0.00,,---,0.00,VWS V14.01,2013-05-02 01:40:00,
2013-05-01 20:45:00,73.6,61.5,30.09,SE,146,0.0,1.0,66,0.00,,---,0.00,VWS V14.01,2013-05-02 01:45:00,
2013-05-01 20:50:00,73.4,62.6,30.09,SE,146,1.0,1.0,69,0.00,,---,0.00,VWS V14.01,2013-05-02 01:50:00,
2013-05-01 20:55:00,73.1,62.3,30.09,SE,146,0.0,1.0,69,0.00,,---,0.00,VWS V14.01,2013-05-02 01:55:00,
2013-05-01 21:00:00,72.9,63.0,30.09,SE,146,0.0,0.0,71,0.00,,---,0.00,VWS V14.01,2013-05-02 02:00:00,
2013-05-01 21:06:00,72.7,64.3,30.09,SE,146,0.0,0.0,75,0.00,,---,0.00,VWS V14.01,2013-05-02 02:06:00,
2013-05-01 21:10:00,72.4,63.7,30.09,SE,146,0.0,0.0,74,0.00,,---,0.00,VWS V14.01,2013-05-02 02:10:00,
2013-05-01 21:16:00,72.1,64.1,30.09,SE,146,0.0,0.0,76,0.00,,---,0.00,VWS V14.01,2013-05-02 02:16:00,
2013-05-01 21:21:00,71.7,63.7,30.09,SE,146,0.0,0.0,76,0.00,,---,0.00,VWS V14.01,2013-05-02 02:21:00,
2013-05-01 21:26:00,71.3,63.0,30.09,SE,146,1.0,1.0,75,0.00,,---,0.00,VWS V14.01,2013-05-02 02:26:00,
2013-05-01 21:31:00,70.9,61.8,30.09,ESE,121,2.0,2.0,73,0.00,,---,0.00,VWS V14.01,2013-05-02 02:31:00,
2013-05-01 21:36:00,70.7,60.8,30.09,ESE,121,1.0,1.0,71,0.00,,---,0.00,VWS V14.01,2013-05-02 02:36:00,
2013-05-01 21:41:00,70.6,61.1,30.09,ESE,121,0.0,1.0,72,0.00,,---,0.00,VWS V14.01,2013-05-02 02:41:00,
2013-05-01 21:46:00,70.3,61.2,30.09,ESE,121,1.0,2.0,73,0.00,,---,0.00,VWS V14.01,2013-05-02 02:46:00,
2013-05-01 21:51:00,70.0,61.0,30.09,ESE,121,1.0,1.0,73,0.00,,---,0.00,VWS V14.01,2013-05-02 02:51:00,
2013-05-01 21:56:00,69.8,61.2,30.09,ESE,121,1.0,1.0,74,0.00,,---,0.00,VWS V14.01,2013-05-02 02:56:00,
2013-05-01 22:01:00,69.5,60.9,30.09,ESE,121,0.0,1.0,74,0.00,,---,0.00,VWS V14.01,2013-05-02 03:01:00,
2013-05-01 22:06:00,69.2,61.0,30.09,ESE,121,0.0,2.0,75,0.00,,---,0.00,VWS V14.01,2013-05-02 03:06:00,
2013-05-01 22:11:00,69.0,61.1,30.10,ESE,121,0.0,1.0,76,0.00,,---,0.00,VWS V14.01,2013-05-02 03:11:00,
2013-05-01 22:16:00,68.8,60.9,30.10,ESE,122,1.0,1.0,76,0.00,,---,0.00,VWS V14.01,2013-05-02 03:16:00,
2013-05-01 23:48:00,66.4,60.0,30.09,ESE,104,0.0,1.0,80,0.00,,---,0.00,VWS V14.01,2013-05-02 04:48:00,
2013-05-01 23:49:00,66.4,60.0,30.09,ESE,104,1.0,1.0,80,0.00,,---,0.00,VWS V14.01,2013-05-02 04:49:00,
2013-05-01 23:54:00,66.3,59.6,30.09,ESE,104,0.0,1.0,79,0.00,,---,0.00,VWS V14.01,2013-05-02 04:54:00,
2013-05-01 23:59:00,66.2,59.9,30.09,ESE,104,0.0,0.0,80,0.00,,---,0.00,VWS V14.01,2013-05-02 04:59:00,